Location: Mentone
(34.5413°N, 85.5351°W)
Time: 20:41:25
(UTC-06:00)

Centaur AC-72 - Visible Passes

Search period start: 23 November 2014 00:00
Search period end: 03 December 2014 00:00
Orbit: 1142 x 35214 km, 19.1° (Epoch: 21 November)

Date Brightness Start Highest point End Pass type
(mag) Time Alt. Az. Time Alt. Az. Time Alt. Az.
23 Nov 9.5 19:21:14 10° W 20:54:00 31° W 00:37:31 10° W visible
24 Nov 7.3 16:09:45 10° W 17:51:09 65° SW 01:46:21 10° SSW visible
25 Nov 7.5 13:14:25 10° WSW 13:42:27 62° SSE 22:59:31 10° SSE visible
26 Nov 6.7 10:24:57 10° SSW 17:39:07 33° ESE 19:49:45 10° SE visible
27 Nov 9.5 19:04:20 10° W 20:37:07 31° W 00:24:57 10° W visible
28 Nov 7.3 15:53:44 10° W 17:32:21 65° SSW 01:30:31 10° SSW visible
29 Nov 7.4 12:58:36 10° WSW 13:25:22 62° SSE 22:43:15 10° SSE visible
30 Nov 6.6 10:09:09 10° SSW 17:23:22 32° ESE 19:32:17 10° SE visible
01 Dec 9.6 18:47:31 10° W 20:20:12 32° W 00:12:13 10° W visible
02 Dec 8.7 15:37:44 10° W 17:13:21 65° SSW 00:00:00 24° SW visible
